Regional Weather Roundup
Issued by NWS Charleston, SC

Current Version | Previous Version | Graphics & Text | Print | Product List | Glossary On
Versions: 1 2 3 4 5 6 7 8 9 10 11 12 13 14 15 16 17 18 19 20 21 22 23 24 25 26 27 28 29 30 31 32 33 34 35 36 37 38 39 40 41 42 43 44 45 46 47 48 49 50
000 ASUS42 KCHS 270513 RWRCHS REGIONAL WEATHER ROUNDUP NATIONAL WEATHER SERVICE CHARLESTON SC 100 AM EDT WED JUL 27 2016 NOTE: "FAIR" INDICATES FEW OR NO CLOUDS BELOW 12,000 FEET WITH NO SIGNIFICANT WEATHER AND/OR OBSTRUCTIONS TO VISIBILITY. NOT ALL STATIONS ARE QUALITY CONTROLLED. USE DATA WITH CAUTION... ESPECIALLY DEWPOINT OBSERVATIONS. SCZ027-030-031-034>040-042>050-270600- ...SOUTHEAST SOUTH CAROLINA... CITY SKY/WX TMP DP RH WIND PRES REMARKS N CHARLESTON CLEAR 82 75 79 SW9 30.03S WATERFRONT PRK N/A 84 78 82 SW6 30.01F HX 95 MOUNT PLEASANT FAIR 82 79 89 CALM 30.03F HX 93 JOHNS ISLAND FAIR 84 79 84 SW6 30.04S HX 96 PINOPOLIS N/A 82 75 78 SW6 29.95F MONCKS CORNER FAIR 77 72 83 SW7 30.03S SUMMERVILLE FAIR 77 77 100 CALM 30.04F BEAUFORT MCAS CLEAR 84 76 76 SW8 30.04S HX 93 BEAUFORT ARPT NOT AVBL HILTON HEAD IS CLEAR 84 79 84 SW9 30.05S HX 96 WALTERBORO CLEAR 81 79 94 SW5 30.04F ALLENDALE FAIR 81 75 83 CALM 30.03S ...SOUTHERN MIDLANDS AND PEE DEE... CITY SKY/WX TMP DP RH WIND PRES REMARKS GEORGETOWN FAIR 77 73 88 SW6 30.03S KINGSTREE FAIR 79 72 78 S5 30.01S ORANGEBURG CLEAR 79 74 84 SW7 30.03F BARNWELL NOT AVBL AIKEN FAIR 81 72 74 S7 30.08R MANNING FAIR 81 72 74 SW8 30.02S COLUMBIA CLEAR 85 71 63 SW8 30.01S HX 90 SUMTER CLEAR 82 73 74 S10 29.99S FLORENCE CLEAR 83 74 74 SW9 30.01S MYRTLE BEACH CLEAR 82 70 65 W7 30.03S N MYRTLE BEACH CLEAR 83 73 72 SW9 30.00F $$ GAZ063-065-086>088-099>101-113>116-118-119-134>141-150-270600- ...SOUTHEAST GEORGIA... CITY SKY/WX TMP DP RH WIND PRES REMARKS SAVANNAH ARPT CLEAR 82 74 76 SW8 30.05F HUNTER AAF MOCLDY 82 79 89 S7 30.02F HX 93 FORT STEWART CLEAR 79 74 84 CALM 30.04S STATESBORO CLEAR 83 74 75 SW5 30.05S HX 90 SYLVANIA NOT AVBL CLAXTON FAIR 79 77 93 CALM 30.06R ...CSRA...CENTRAL AND FAR SOUTHEAST GEORGIA... CITY SKY/WX TMP DP RH WIND PRES REMARKS THOMSON NOT AVBL AUGUSTA-BUSH CLEAR 78 73 84 S3 30.03R AUGUSTA-DANIEL CLEAR 85 70 60 CALM 30.05R SWAINSBORO FAIR 81 72 74 W3 30.07R VIDALIA CLEAR 79 70 73 SW3 30.07S EASTMAN FAIR 80 66 61 W3 30.10R HAZLEHURST CLOUDY 83 76 81 CALM 30.07R HX 91 ALMA CLEAR 80 73 79 SW5 30.07R WAYCROSS CLEAR 83 77 82 W5 30.07S HX 92 JESUP FAIR 79 79 100 CALM 30.07S BAXLEY FAIR 81 79 94 CALM 30.07R BRUNSWICK CLEAR 81 77 89 SW6 30.08S SAINT SIMONS CLEAR 83 73 72 SW10 30.07R $$ SCZ027-028-034-036>038-045-046-048>050-GAZ119-141-270600- ...LAKE AND SUPPLEMENTAL COASTAL OBSERVATIONS... STATION/POSITION TIME TEMP WIND PRES WAVE SWELL AIR SEA DIR/SP/G HT/PER HT/PER/DIR (UTC) (F) (DEG/KT/KT) (MB) (FT/S) (FT/S/D) WINYAH BAY NOT AVBL LAKE MURRAY NOT AVBL ACE BASIN NERRS NOT AVBL FORT PULASKI 0400 84 88 210/ 7/ 12 1018.0 SAPELO ISLAND 0400 84 210/ 7 1018.0S $$ ANZ835-935-AMZ111-154-330-350-352-354-370-450-454-472-270600- ...C-MAN AND BUOY OBSERVATIONS... STATION/POSITION TIME TEMP WIND PRES WAVE SWELL AIR SEA DIR/SP/G HT/PER HT/PER/DIR (UTC) (F) (DEG/KT/KT) (MB) (FT/S) (FT/S/D) BUOY 41004 0450 85 86 220/ 16/ 19 1016.3F 3/ 4 2/140/ 8 BUOY 41008 0450 86 87 190/ 16/ 17 1017.3F 3/ 4 FOLLY BEACH CMAN 0400 85 230/ 12/ 16 1017.2R CAPERS NEARSHORE 0408 85 83 240/ 16/ 21 1016.6S FRIPP NEARSHORE 0408 86 87 220/ 19/ 25 1016.7R STATION/POSITION TIME TEMP WIND PRES WAVE SWELL AIR SEA DIR/SP/G HT/PER HT/PER/DIR (UTC) (F) (DEG/KT/KT) (MB) (FT/S) (FT/S/D) 5E ST. MARYS GA 0401 86 N/A 3/ 4 FRYING PAN BUOY 0400 85 85 230/ 16/ 19 1016.0S BUOY 41025 0450 84 84 240/ 19/ 23 1015.0S 5/ 5 CAPE LOOKOUT NC 0500 83 240/ 11/ 15 1015.3F BUOY 41002 0450 84 84 230/ 12/ 16 1017.7F 2/ 7 2/110/ 7 BUOY 41010 0420 85 86 170/ 8/ 10 1019.0F ST AUGUSTINE FL 0500 81 85 220/ 6/ 8 1019.5R $$

USA.gov is the U.S. government's official web portal to all federal, state and local government web resources and services.